This demonstration page uses our WeatherBlox Daily Observations layout. Learn more.

Left ArrowRight Arrow

53.62937, 11.41316

Hourly Observations for February 20, 2018

Temp ( °F °C ) Dew Point ( °F °C ) Humidity (%) Winds ( mph kmh ) Pressure ( in mb ) Visibility ( mi km ) Precip ( " mm )
8:20 am 08:20 Mostly Sunny 25 -4 23 -5 93 93 NE 3 6 30.15 1021 4 7 N/A
8:50 am 08:50 Mostly Sunny 27 -3 25 -4 93 93 ENE 3 6 30.15 1021 4 6 N/A
9:20 am 09:20 Mostly Sunny 30 -1 28 -2 93 93 ENE 2 4 30.18 1022 4 7 N/A
9:50 am 09:50 Mostly Sunny 32 0 28 -2 87 87 ENE 6 9 30.15 1021 6 9 N/A
10:20 am 10:20 Mostly Sunny 34 1 27 -3 75 75 ENE 9 15 30.15 1021 7 11 N/A
10:50 am 10:50 Mostly Sunny 34 1 27 -3 75 75 ENE 12 19 30.15 1021 7 11 N/A
11:20 am 11:20 Mostly Sunny 34 1 27 -3 75 75 ENE 10 17 30.15 1021 7 11 N/A
11:50 am 11:50 Mostly Sunny 36 2 27 -3 70 70 ENE 13 20 30.15 1021 7 11 N/A
12:20 pm 12:20 Mostly Sunny 36 2 27 -3 70 70 ENE 12 19 30.15 1021 7 11 N/A
12:50 pm 12:50 Mostly Sunny 37 3 27 -3 65 65 ENE 9 15 30.15 1021 7 11 N/A
1:20 pm 13:20 Mostly Sunny 37 3 27 -3 65 65 ENE 9 15 30.15 1021 7 11 N/A
1:50 pm 13:50 Mostly Sunny 37 3 27 -3 65 65 ENE 10 17 30.15 1021 7 11 N/A
2:20 pm 14:20 Mostly Sunny 37 3 25 -4 60 60 ENE 12 19 30.15 1021 7 11 N/A
2:50 pm 14:50 Mostly Sunny 37 3 25 -4 60 60 E 12 19 30.15 1021 7 11 N/A
3:20 pm 15:20 Mostly Sunny 39 4 25 -4 56 56 ENE 13 20 30.15 1021 7 11 N/A
3:50 pm 15:50 Mostly Sunny 37 3 23 -5 56 56 ENE 13 20 30.15 1021 7 11 N/A
4:20 pm 16:20 Mostly Sunny 37 3 23 -5 56 56 ENE 10 17 30.15 1021 7 11 N/A
4:50 pm 16:50 Mostly Sunny 36 2 23 -5 60 60 ENE 10 17 30.15 1021 30 48 N/A
5:20 pm 17:20 Mostly Sunny 32 0 23 -5 69 69 NE 7 11 30.18 1022 7 11 N/A
5:50 pm 17:50 Mostly Clear 32 0 23 -5 69 69 NE 6 9 30.18 1022 7 11 N/A

Powered by AerisWeather